GPS BIIR-13 (PRN 02)

Last updated on July 6, 2021, 3:39 p.m. UTC

1 28474U 04045A   21186.40148652 -.00000084  00000-0  00000-0 0  9999
2 28474  55.2009  37.3968 0203947 273.5943 263.2218  2.00559979122175
UTC
Height (km)
Latitude
Longitude
Inclination
Orbital Period
UTC large
Height (km)
Speed (km/s)
/
Latitude / Longitude
Inclination (degrees)
Orbital Period (minutes)
Azimuth
Elevation
Range (km)
Doppler Factor
iOS Compass Heading
iOS Angle